7 * 24
多渠道服务支持
IRIDIUM 174是美国铱星星座(Iridium)的一颗低轨通信卫星,于北京时间2023年5月20日8时成功发射。铱星星座是全球首个低轨个人卫星移动通信系统,采用极地圆轨道设计,轨道高度约780公里,具备星际链路交换能力。IRIDIUM 174主要承担补充铱星星座组网,为全球偏远地区、海洋、极地及航空航海领域提供稳定的语音与数据通信服务,同时支持应急救援、物联网连接等应用,进一步增强了铱星系统的通信覆盖可靠性。
美国
(US)
| 数据来源 | 国际轨道数据 |
| 星历时间: | 2026-03-13T15:38:25+0800 16小时前 查看轨道信息 |
| 半长轴: | 7032.002km |
| 偏心率: | 0.0002533 |
| 轨道倾角: | 86.611° |
| 近地点辐角 | 79.594° |
| 升交点赤经 | 33.746° |
| 平近点角 | 280.556° |
| 近地点: | 652.083km |
| 远地点: | 655.647km |
| 周期: | 97.809分钟 |
| 每日圈数: | 14.722593 |